Location: Starlight Cascade Observatory
(44.3775°N, 76.7633°W)
Time: 04:10:37
(UTC-05:00)

N. Korean satellite - Visible Passes

Search period start: 01 December 2020 00:00
Search period end: 11 December 2020 00:00
Orbit: 453 x 504 km, 97.2° (Epoch: 30 November)

Date Brightness Start Highest point End Pass type
(mag) Time Alt. Az. Time Alt. Az. Time Alt. Az.
01 Dec 7.3 05:25:36 10° NNE 05:29:10 54° E 05:32:44 10° S visible
01 Dec 9.4 17:36:14 10° SW 17:38:50 20° W 17:41:29 10° NW visible
02 Dec 8.9 04:59:41 10° NE 05:02:45 25° E 05:05:51 10° SSE visible
02 Dec 7.8 06:33:06 10° NNW 06:35:58 22° WNW 06:38:51 10° WSW visible
02 Dec 7.9 17:09:07 10° S 17:12:23 43° W 17:15:42 10° NNW visible
03 Dec 9.9 04:34:30 10° ENE 04:36:15 13° E 04:37:58 10° ESE visible
03 Dec 6.9 06:06:18 10° N 06:09:47 44° WNW 06:13:17 10° SW visible
04 Dec 6.6 05:39:50 10° NNE 05:43:30 84° E 05:47:11 10° S visible
04 Dec 9.8 17:51:24 10° SW 17:53:15 14° W 17:55:06 10° WNW visible
05 Dec 8.1 05:13:41 10° NNE 05:17:07 38° E 05:20:34 10° SSE visible
05 Dec 8.2 06:47:53 10° NNW 06:50:09 16° WNW 06:52:26 10° WSW visible
05 Dec 8.8 17:23:42 10° SSW 17:26:42 28° W 17:29:45 10° NW visible
06 Dec 9.4 04:47:57 10° NE 04:50:37 19° E 04:53:18 10° SE visible
06 Dec 7.4 06:20:46 10° N 06:23:59 30° WNW 06:27:14 10° SW visible
06 Dec 7.1 16:56:50 10° S 17:00:14 63° WSW 17:03:43 10° NNW visible
07 Dec 6.5 05:54:06 10° N 05:57:44 63° WNW 06:01:22 10° SSW visible
08 Dec 7.2 05:27:43 10° NNE 05:31:22 58° E 05:35:00 10° S visible
08 Dec 9.5 17:38:25 10° SW 17:40:58 19° W 17:43:33 10° NW visible
09 Dec 8.7 05:01:42 10° NE 05:04:54 27° E 05:08:06 10° SSE visible
09 Dec 7.8 06:35:14 10° NNW 06:38:05 21° WNW 06:40:55 10° WSW visible
09 Dec 8.1 17:11:09 10° S 17:14:25 40° W 17:17:46 10° NNW visible
10 Dec 9.8 04:36:20 10° ENE 04:38:19 14° E 04:40:19 10° SE visible
10 Dec 7.0 06:08:21 10° N 06:11:50 41° WNW 06:15:20 10° SW visible
